Location: Apeadero de Los Molinos-Guadarrama
(40.7091°N, 4.0689°W)
Time: 11:43:14
(UTC+00:00)

Cosmos 44 Rocket - Pass Details

Date: 14 May 2021
Orbit: 636 x 754 km, 65.1° (Epoch: 18 June)

Event Time Altitude Azimuth Distance (km) Brightness Sun altitude
Rises 23:45:49 0° 332° (NNW) 3,210 7.7 -30.1°
Reaches altitude 10° 23:48:20 10° 339° (NNW) 2,277 6.8 -30.2°
Enters shadow 23:53:02 45° 41° (NE) 1,013 4.3 -30.2°
